When you browse on this site, cookies collect data to enhance your experience and personalize the content and advertising you see.
Visit our Privacy Policy to learn more. By continuing to use the site, you agree to this use of cookies and data.
  • In Norway
  • List of Countries
  • For 7 days
  • Water Temperature
  • Satellite Maps
  • Weather Map
  • Weather Widgets
  • user-avatar
    Login

    Hourly Weather Karak

    Today, 25 June, Tuesday

    Time Temperature Precipitation Wind Pressure Humidity
    00:00 +26°C° 0 mm 2 mps 679 mmHg 44%
    01:00 +25°C° 0 mm 2 mps 679 mmHg 45%
    02:00 +24°C° 0 mm 1 mps 678 mmHg 46%
    03:00 +24°C° 0 mm 1 mps 678 mmHg 48%
    04:00 +23°C° 0 mm 1 mps 678 mmHg 49%
    05:00 +23°C° 0 mm 1 mps 678 mmHg 50%
    06:00 +25°C° 0 mm 1 mps 679 mmHg 43%
    07:00 +27°C° 0 mm 1 mps 679 mmHg 36%
    08:00 +29°C° 0 mm 2 mps 680 mmHg 29%
    09:00 +31°C° 0 mm 2 mps 680 mmHg 26%
    10:00 +34°C° 0 mm 2 mps 680 mmHg 22%
    11:00 +36°C° 0 mm 2 mps 680 mmHg 19%
    12:00 +36°C° 0 mm 3 mps 680 mmHg 18%
    13:00 +37°C° 0 mm 3 mps 680 mmHg 18%
    14:00 +38°C° 0 mm 4 mps 680 mmHg 17%
    15:00 +38°C° 0 mm 4 mps 680 mmHg 16%
    16:00 +37°C° 0 mm 5 mps 679 mmHg 15%
    17:00 +37°C° 0 mm 5 mps 679 mmHg 14%
    18:00 +35°C° 0 mm 5 mps 679 mmHg 22%
    19:00 +33°C° 0 mm 4 mps 679 mmHg 29%
    20:00 +29°C° 0 mm 3 mps 679 mmHg 36%
    21:00 +29°C° 0 mm 3 mps 679 mmHg 38%
    22:00 +28°C° 0 mm 3 mps 679 mmHg 40%
    23:00 +27°C° 0 mm 3 mps 680 mmHg 42%

    Tomorrow, 26 June, Wednesday

    Time Temperature Precipitation Wind Pressure Humidity
    00:00 +26°C° 0 mm 3 mps 679 mmHg 45%
    01:00 +25°C° 0 mm 2 mps 679 mmHg 49%
    02:00 +24°C° 0 mm 2 mps 679 mmHg 52%
    03:00 +24°C° 0 mm 2 mps 679 mmHg 52%
    04:00 +24°C° 0 mm 2 mps 679 mmHg 52%
    05:00 +23°C° 0 mm 1 mps 679 mmHg 52%
    06:00 +25°C° 0 mm 2 mps 679 mmHg 46%
    07:00 +27°C° 0 mm 2 mps 680 mmHg 40%
    08:00 +28°C° 0 mm 2 mps 680 mmHg 35%
    09:00 +30°C° 0 mm 3 mps 680 mmHg 32%
    10:00 +31°C° 0 mm 3 mps 680 mmHg 29%
    11:00 +34°C° 0 mm 3 mps 680 mmHg 26%
    12:00 +35°C° 0 mm 4 mps 680 mmHg 23%
    13:00 +36°C° 0 mm 4 mps 680 mmHg 20%
    14:00 +37°C° 0 mm 4 mps 680 mmHg 17%
    15:00 +37°C° 0 mm 5 mps 680 mmHg 18%
    16:00 +36°C° 0 mm 5 mps 680 mmHg 20%
    17:00 +36°C° 0 mm 5 mps 680 mmHg 21%
    18:00 +34°C° 0 mm 4 mps 680 mmHg 25%
    19:00 +31°C° 0 mm 3 mps 680 mmHg 28%
    20:00 +29°C° 0 mm 3 mps 680 mmHg 31%
    21:00 +28°C° 0 mm 2 mps 680 mmHg 32%
    22:00 +28°C° 0 mm 2 mps 679 mmHg 32%
    23:00 +27°C° 0 mm 2 mps 679 mmHg 32%

    Day after tomorrow, 27 June, Thursday

    Time Temperature Precipitation Wind Pressure Humidity
    00:00 +26°C° 0 mm 2 mps 679 mmHg 34%
    01:00 +25°C° 0 mm 2 mps 679 mmHg 35%
    02:00 +24°C° 0 mm 2 mps 679 mmHg 36%
    03:00 +24°C° 0 mm 2 mps 678 mmHg 38%
    04:00 +23°C° 0 mm 2 mps 678 mmHg 39%
    05:00 +21°C° 0 mm 2 mps 678 mmHg 40%
    06:00 +24°C° 0 mm 2 mps 679 mmHg 34%
    07:00 +26°C° 0 mm 3 mps 679 mmHg 28%
    08:00 +28°C° 0 mm 3 mps 680 mmHg 21%
    09:00 +30°C° 0 mm 3 mps 680 mmHg 19%
    10:00 +32°C° 0 mm 4 mps 680 mmHg 17%
    11:00 +33°C° 0 mm 4 mps 680 mmHg 15%
    12:00 +34°C° 0 mm 5 mps 679 mmHg 14%
    13:00 +35°C° 0 mm 5 mps 679 mmHg 14%
    14:00 +36°C° 0 mm 5 mps 679 mmHg 13%
    15:00 +35°C° 0 mm 6 mps 679 mmHg 15%
    16:00 +34°C° 0 mm 6 mps 678 mmHg 16%
    17:00 +34°C° 0 mm 6 mps 678 mmHg 17%
    18:00 +32°C° 0 mm 5 mps 678 mmHg 22%
    19:00 +29°C° 0 mm 4 mps 678 mmHg 27%
    20:00 +27°C° 0 mm 3 mps 678 mmHg 31%
    21:00 +26°C° 0 mm 3 mps 678 mmHg 34%
    22:00 +25°C° 0 mm 3 mps 678 mmHg 36%
    23:00 +24°C° 0 mm 3 mps 678 mmHg 38%

    28 June, Friday

    Time Temperature Precipitation Wind Pressure Humidity
    00:00 +24°C° 0 mm 3 mps 677 mmHg 40%
    01:00 +22°C° 0 mm 3 mps 677 mmHg 43%
    02:00 +22°C° 0 mm 3 mps 676 mmHg 45%
    03:00 +21°C° 0 mm 4 mps 676 mmHg 45%
    04:00 +21°C° 0 mm 4 mps 676 mmHg 46%
    05:00 +21°C° 0 mm 4 mps 676 mmHg 46%
    06:00 +22°C° 0 mm 5 mps 676 mmHg 41%
    07:00 +25°C° 0 mm 5 mps 677 mmHg 36%
    08:00 +27°C° 0 mm 6 mps 677 mmHg 31%
    09:00 +28°C° 0 mm 6 mps 677 mmHg 30%
    10:00 +29°C° 0 mm 5 mps 677 mmHg 28%
    11:00 +30°C° 0 mm 5 mps 677 mmHg 27%
    12:00 +32°C° 0 mm 6 mps 677 mmHg 25%
    13:00 +33°C° 0 mm 6 mps 677 mmHg 23%
    14:00 +34°C° 0 mm 7 mps 677 mmHg 21%
    15:00 +33°C° 0 mm 7 mps 676 mmHg 24%
    16:00 +32°C° 0 mm 7 mps 676 mmHg 28%
    17:00 +31°C° 0 mm 8 mps 676 mmHg 31%
    18:00 +28°C° 0 mm 6 mps 676 mmHg 36%
    19:00 +26°C° 0 mm 5 mps 676 mmHg 41%
    20:00 +25°C° 0 mm 3 mps 676 mmHg 47%
    21:00 +24°C° 0 mm 3 mps 676 mmHg 50%
    22:00 +24°C° 0 mm 3 mps 676 mmHg 54%
    23:00 +23°C° 0 mm 2 mps 676 mmHg 57%

    29 June, Saturday

    Time Temperature Precipitation Wind Pressure Humidity
    00:00 +21°C° 0 mm 3 mps 676 mmHg 63%
    01:00 +21°C° 0 mm 3 mps 676 mmHg 69%
    02:00 +20°C° 0 mm 3 mps 675 mmHg 75%
    03:00 +20°C° 0 mm 3 mps 675 mmHg 80%
    04:00 +19°C° 0 mm 3 mps 675 mmHg 85%
    05:00 +19°C° 0 mm 3 mps 675 mmHg 90%
    06:00 +20°C° 0 mm 3 mps 675 mmHg 80%
    07:00 +21°C° 0 mm 4 mps 676 mmHg 69%
    08:00 +23°C° 0 mm 4 mps 676 mmHg 58%
    09:00 +25°C° 0 mm 4 mps 676 mmHg 51%
    10:00 +27°C° 0 mm 4 mps 677 mmHg 44%
    11:00 +29°C° 0 mm 4 mps 677 mmHg 37%
    12:00 +30°C° 0 mm 4 mps 677 mmHg 34%
    13:00 +32°C° 0 mm 4 mps 677 mmHg 31%
    14:00 +33°C° 0 mm 4 mps 676 mmHg 28%
    15:00 +33°C° 0 mm 5 mps 676 mmHg 30%
    16:00 +32°C° 0 mm 5 mps 676 mmHg 32%
    17:00 +32°C° 0 mm 6 mps 676 mmHg 34%
    18:00 +29°C° 0 mm 5 mps 676 mmHg 38%
    19:00 +28°C° 0 mm 4 mps 677 mmHg 43%
    20:00 +26°C° 0 mm 3 mps 677 mmHg 47%
    21:00 +25°C° 0 mm 3 mps 677 mmHg 51%
    22:00 +24°C° 0 mm 2 mps 677 mmHg 54%
    23:00 +24°C° 0 mm 2 mps 677 mmHg 58%

    30 June, Sunday

    Time Temperature Precipitation Wind Pressure Humidity
    00:00 +23°C° 0 mm 2 mps 676 mmHg 60%
    01:00 +23°C° 0 mm 2 mps 676 mmHg 62%
    02:00 +21°C° 0 mm 2 mps 676 mmHg 64%
    03:00 +21°C° 0 mm 2 mps 676 mmHg 66%
    04:00 +20°C° 0 mm 2 mps 676 mmHg 68%
    05:00 +21°C° 0 mm 1 mps 676 mmHg 70%
    06:00 +21°C° 0 mm 2 mps 676 mmHg 61%
    07:00 +24°C° 0 mm 2 mps 677 mmHg 52%
    08:00 +26°C° 0 mm 3 mps 677 mmHg 42%
    09:00 +27°C° 0 mm 3 mps 677 mmHg 37%
    10:00 +29°C° 0 mm 4 mps 677 mmHg 32%
    11:00 +30°C° 0 mm 4 mps 678 mmHg 27%
    12:00 +32°C° 0 mm 4 mps 677 mmHg 24%
    13:00 +33°C° 0 mm 4 mps 677 mmHg 22%
    14:00 +34°C° 0 mm 4 mps 677 mmHg 19%
    15:00 +34°C° 0 mm 4 mps 677 mmHg 20%
    16:00 +33°C° 0 mm 5 mps 677 mmHg 21%
    17:00 +33°C° 0 mm 5 mps 676 mmHg 22%
    18:00 +30°C° 0 mm 5 mps 676 mmHg 27%
    19:00 +29°C° 0 mm 4 mps 676 mmHg 33%
    20:00 +27°C° 0 mm 3 mps 676 mmHg 38%
    21:00 +26°C° 0 mm 3 mps 676 mmHg 39%
    22:00 +25°C° 0 mm 3 mps 677 mmHg 39%
    23:00 +25°C° 0 mm 3 mps 677 mmHg 40%
    Show more